Location: Eschertshofen
(49.3064°N, 11.5756°E)
Time: 12:45:26
(UTC+00:00)

SWAS - Pass Details

Date: 18 September 2020
Orbit: 581 x 590 km, 69.9° (Epoch: 22 October)

Event Time Altitude Azimuth Distance (km) Brightness Sun altitude
Rises 19:31:59 0° 329° (NNW) 2,830 9.0 -21.4°
Reaches altitude 10° 19:34:13 10° 329° (NNW) 1,923 7.9 -21.7°
Maximum altitude 19:38:32 85° 243° (WSW) 595 4.4 -22.3°
Enters shadow 19:38:57 72° 166° (SSE) 621 4.3 -22.4°
